User: anonymous   Login
Location: Unspecified
(0.0000°N, 0.0000°E)
Time: 01:27:32
(UTC+00:00)
Language:

DSP F15 - Orbit

View from above orbital plane
View from above orbital plane
View from above satellite
View from above satellite

Ground track
Ground track

The orbit data is extracted from the following two-line orbital elements,

1 20929U 90095A   24106.22479300 -.00000022  00000-0  00000+0 0  9999
2 20929  14.5002 349.6012 0006382  84.2524 107.4931  0.98396267 17659
Epoch (UTC): 15 April 2024 05:23:42
Eccentricity: 0.0006382
inclination: 14.5002°
perigee height: 36293 km
apogee height: 36347 km
right ascension of ascending node: 349.6012°
argument of perigee: 84.2524°
revolutions per day: 0.98396267
mean anomaly at epoch: 107.4931°
orbit number at epoch: 1765

The dashed part of the orbit path shows where the satellite is in the earth's shadow,  

DLR